7L2IWN-13 Weather Reports


time (UTC)temp
F
wind
direction
speed
knots
gust
knots
rain 1hr
in
rain 24hr
in
rain mn
in
humidity
%
barometer
mb
20260503235821 63 233 0.9 1.7 0.00 0.25 0.25 95 997.4
20260503234622 63 297 1.7 4.3 0.00 0.25 0.25 97 997.1
20260503233421 62 284 0.9 1.7 0.00 0.25 0.25 97 997.4
20260503232221 63 22 0.9 1.7 0.00 0.25 0.25 96 997.2
20260503231022 63 133 2.6 4.3 0.00 0.25 0.25 96 997.5
20260503224624 61 114 0.0 0.0 0.00 0.25 0.25 99 997.6
20260503223421 60 205 1.7 2.6 0.00 0.25 0.25 99 997.7
20260503222222 59 209 1.7 4.3 0.00 0.25 0.25 99 997.5
20260503221022 58 315 1.7 2.6 0.00 0.25 0.25 99 996.9
20260503215822 58 308 0.9 1.7 0.00 0.25 0.25 99 997.5
20260503214621 58 199 0.0 0.0 0.00 0.25 0.25 99 997.4
20260503213423 58 291 0.9 1.7 0.00 0.25 0.25 99 997.2
20260503212221 58 166 0.0 0.0 0.00 0.25 0.25 99 997.1
20260503211022 57 54 0.0 0.9 0.02 0.25 0.25 99 997.0
20260503205822 57 321 0.0 0.0 0.02 0.25 0.25 99 997.2
20260503204622 57 311 0.0 0.0 0.18 0.25 0.25 99 997.5
20260503203421 57 289 2.6 2.6 0.18 0.25 0.25 99 997.7
20260503202222 57 251 1.7 2.6 0.18 0.25 0.25 99 997.8
20260503201022 57 264 0.9 0.9 0.16 0.23 0.23 99 997.4
20260503195821 57 264 0.9 0.9 0.16 0.23 0.23 99 997.3
20260503194620 58 292 0.9 0.9 0.00 0.07 0.07 99 997.8
20260503193422 58 292 0.9 0.9 0.06 0.07 0.07 99 997.6
20260503192223 58 292 0.9 0.9 0.06 0.07 0.07 99 998.1
20260503191021 58 292 0.9 0.9 0.06 0.07 0.07 99 997.6
20260503185821 58 292 0.9 0.9 0.07 0.07 0.07 99 997.7
20260503184620 58 292 0.9 0.9 0.07 0.07 0.07 99 998.4
20260503183420 58 126 0.9 1.7 0.01 0.01 0.01 99 999.0
20260503182221 58 126 0.9 1.7 0.01 0.01 0.01 99 999.4
20260503181020 58 345 0.0 0.9 0.01 0.01 0.01 99 999.5
20260503175820 58 240 0.9 1.7 0.00 0.00 0.00 99 998.8
20260503174620 58 323 0.9 1.7 0.00 0.00 0.00 97 999.0
20260503173419 58 292 0.0 0.9 0.00 0.00 0.00 96 999.5
20260503172220 59 188 0.0 0.0 0.00 0.00 0.00 94 999.6
20260503171020 59 49 0.0 0.0 0.00 0.00 0.00 92 999.7
20260503131020 63 30 0.9 1.7 0.00 0.00 0.00 77 1002.6
20260503081020 76 277 4.3 8.7 0.00 0.00 0.00 31 1003.8
20260503072221 77 175 8.7 14.8 0.00 0.00 0.00 29 1003.8
20260503071022 76 151 4.3 7.0 0.00 0.00 0.00 39 1003.7
20260503054620 75 319 4.3 6.1 0.00 0.00 0.00 56 1004.6
20260503052221 74 332 2.6 7.0 0.00 0.00 0.00 61 1005.3
20260503051021 76 241 2.6 7.0 0.00 0.00 0.00 56 1005.3
20260503045820 74 356 0.9 2.6 0.00 0.00 0.00 56 1006.0
20260503044620 73 11 0.9 1.7 0.00 0.00 0.00 59 1006.4
20260503043420 73 22 6.1 10.4 0.00 0.00 0.00 59 1006.5
20260503042220 73 39 2.6 7.0 0.00 0.00 0.00 58 1006.9
20260503041021 73 44 2.6 7.0 0.00 0.00 0.00 59 1006.9
20260503035820 72 99 2.6 5.2 0.00 0.00 0.00 57 1007.4
20260503034620 72 125 1.7 4.3 0.00 0.00 0.00 55 1007.7
20260503033421 71 41 0.9 2.6 0.00 0.00 0.00 56 1008.0
20260503032222 70 24 4.3 5.2 0.00 0.00 0.00 58 1008.3
20260503031021 70 80 0.9 1.7 0.00 0.00 0.00 57 1008.7
20260503025820 72 75 2.6 4.3 0.00 0.00 0.00 55 1008.8
20260503024620 69 97 4.3 7.0 0.00 0.00 0.00 56 1009.2
20260503023421 67 116 4.3 5.2 0.00 0.00 0.00 58 1009.5
20260503022221 67 57 1.7 5.2 0.00 0.00 0.00 62 1009.6
20260503021023 67 128 1.7 5.2 0.00 0.00 0.00 63 1010.3
20260503015821 66 62 0.0 2.6 0.00 0.00 0.00 64 1010.3
20260503014620 67 32 1.7 2.6 0.00 0.00 0.00 65 1010.6
20260503013420 65 18 0.0 1.7 0.00 0.00 0.00 67 1010.7
20260503012219 64 82 0.0 1.7 0.00 0.00 0.00 69 1011.0